TimeEST,TemperatureF,Dew PointF,Humidity,Sea Level PressureIn,VisibilityMPH,Wind Direction,Wind SpeedMPH,Gust SpeedMPH,PrecipitationIn,Events,Conditions,WindDirDegrees,DateUTC
12:52 AM,30.9,25.0,79,30.48,10.0,Calm,Calm,-,N/A,,Clear,0,2012-11-14 05:52:00
1:52 AM,28.9,25.0,85,30.49,10.0,Calm,Calm,-,N/A,,Clear,0,2012-11-14 06:52:00
2:52 AM,27.0,24.1,89,30.50,10.0,Calm,Calm,-,N/A,,Clear,0,2012-11-14 07:52:00
3:52 AM,27.0,23.0,85,30.51,10.0,Calm,Calm,-,N/A,,Clear,0,2012-11-14 08:52:00
4:52 AM,25.0,21.9,88,30.53,10.0,Calm,Calm,-,N/A,,Clear,0,2012-11-14 09:52:00
5:52 AM,25.0,21.9,88,30.55,10.0,Calm,Calm,-,N/A,,Clear,0,2012-11-14 10:52:00
6:52 AM,25.0,21.0,85,30.57,10.0,Calm,Calm,-,N/A,,Clear,0,2012-11-14 11:52:00
7:52 AM,27.0,24.1,89,30.58,10.0,Calm,Calm,-,N/A,,Clear,0,2012-11-14 12:52:00
8:52 AM,33.1,26.1,75,30.58,10.0,Calm,Calm,-,N/A,,Clear,0,2012-11-14 13:52:00
9:52 AM,36.0,23.0,59,30.58,10.0,SW,5.8,-,N/A,,Clear,230,2012-11-14 14:52:00
10:52 AM,39.9,21.9,49,30.56,10.0,Variable,5.8,-,N/A,,Clear,0,2012-11-14 15:52:00
11:52 AM,42.1,21.9,45,30.53,10.0,WNW,5.8,-,N/A,,Clear,290,2012-11-14 16:52:00
12:52 PM,43.0,21.0,42,30.51,10.0,WNW,8.1,-,N/A,,Clear,300,2012-11-14 17:52:00
1:52 PM,44.1,21.9,42,30.50,10.0,Variable,4.6,-,N/A,,Clear,0,2012-11-14 18:52:00
2:52 PM,43.0,21.0,42,30.49,10.0,Variable,6.9,-,N/A,,Clear,0,2012-11-14 19:52:00
3:52 PM,41.0,19.9,43,30.51,10.0,Variable,3.5,-,N/A,,Clear,0,2012-11-14 20:52:00
4:52 PM,37.9,21.0,51,30.52,10.0,WSW,5.8,-,N/A,,Clear,250,2012-11-14 21:52:00
5:52 PM,33.1,21.9,64,30.53,10.0,SW,3.5,-,N/A,,Clear,230,2012-11-14 22:52:00
6:52 PM,30.0,21.9,72,30.54,10.0,Calm,Calm,-,N/A,,Clear,0,2012-11-14 23:52:00
7:52 PM,28.0,21.9,78,30.54,10.0,Calm,Calm,-,N/A,,Clear,0,2012-11-15 00:52:00
8:52 PM,26.1,21.9,84,30.53,10.0,Calm,Calm,-,N/A,,Clear,0,2012-11-15 01:52:00
9:52 PM,25.0,21.0,85,30.53,10.0,Calm,Calm,-,N/A,,Clear,0,2012-11-15 02:52:00
10:52 PM,23.0,19.9,88,30.52,10.0,Calm,Calm,-,N/A,,Clear,0,2012-11-15 03:52:00
11:52 PM,23.0,19.0,85,30.51,10.0,Calm,Calm,-,N/A,,Clear,0,2012-11-15 04:52:00